Wind_Speed
9 9 9 9 9 9 9 9 9 9 9 9 9 8 8 8 8 8 8 8 8 8 8 8 8 8 8 8 8 8 8 7 7 5 5 6 6 6 6 5 6 6 7 7 6 6 6 6 6 6 6 6 5 5 5 5 6 7 8 10 9 7 6 7 5 7 13 16 19 21 21 19 16 16 16 14 14 14 16 15 15 16 15 15 14 15 14 14
11 11 11 11 11 11 11 10 11 10 10 10 10 10 10 10 10 10 10 9 9 9 10 10 10 10 10 11 10 10 10 10 9 6 6 10 9 8 8 8 8 8 8 8 8 8 8 8 8 7 7 7 6 6 7 6 8 8 10 12 9 8 9 9 9 11 16 18 20 22 22 21 18 17 17 16 13 14 16 14 13 15 14 14 14 14 13 13
12 12 12 12 13 12 12 12 12 12 12 12 12 12 11 11 11 11 11 11 11 11 11 11 12 12 12 12 12 12 12 11 10 7 10 13 11 10 10 10 10 10 11 10 10 10 10 11 11 10 9 8 8 8 9 9 10 10 12 14 9 10 12 11 12 15 17 18 19 21 23 24 21 19 20 18 16 17 17 14 14 16 14 13 14 14 13 12
14 14 14 14 14 14 14 14 14 14 14 13 13 13 13 13 13 13 13 13 13 13 13 13 13 14 14 13 13 13 12 12 11 9 11 12 11 10 11 12 12 12 13 13 12 12 12 13 13 13 13 11 11 12 11 9 11 13 15 13 11 12 15 13 14 17 18 18 20 20 22 24 23 23 23 21 22 20 16 15 17 16 14 15 15 14 13 13
16 16 15 16 16 15 15 15 15 15 15 15 15 15 15 15 14 14 14 15 15 15 14 15 15 16 16 15 15 14 14 12 9 8 8 9 10 11 12 14 15 15 15 15 14 15 14 15 15 15 16 13 13 15 13 10 12 16 15 13 13 14 17 16 16 17 17 19 20 21 23 24 24 26 24 24 26 20 13 16 19 18 17 18 17 16 16 14
17 17 17 17 17 17 17 17 17 17 17 17 17 17 16 16 16 16 16 16 16 16 16 16 16 17 17 17 16 16 15 12 9 10 11 11 12 13 14 16 17 16 16 16 16 17 16 17 17 16 17 17 16 16 15 14 16 19 16 14 14 16 19 19 18 19 18 21 22 23 25 24 25 25 25 26 25 17 13 17 21 21 21 20 18 17 16 15
19 19 19 19 19 19 19 19 18 19 19 19 19 19 18 18 18 18 17 18 17 18 18 18 18 19 19 19 18 18 17 14 12 15 15 15 15 15 16 17 18 18 17 17 17 18 18 19 20 18 19 20 19 17 17 18 20 22 19 15 16 18 21 20 21 22 22 23 23 24 26 25 24 25 27 27 22 18 17 19 21 24 24 22 20 17 15 15
20 20 20 20 20 20 20 20 20 20 20 20 21 21 21 20 20 20 20 20 19 20 20 20 21 20 21 20 20 20 18 16 15 17 16 17 17 16 16 16 17 18 18 18 18 19 20 21 20 20 22 22 21 19 19 20 22 24 22 19 19 21 21 22 23 24 24 25 25 26 27 26 24 27 31 25 19 18 18 19 21 24 26 25 22 18 17 17
21 21 21 21 21 21 21 22 22 22 22 22 22 22 23 22 22 22 22 22 21 22 22 22 23 23 23 23 23 23 18 16 16 17 17 17 17 17 17 17 17 18 18 18 19 20 21 21 21 22 24 23 23 22 20 21 24 25 24 24 24 23 23 24 25 25 25 26 27 29 27 26 24 29 31 18 13 16 17 19 19 21 25 25 24 22 21 21
23 23 22 23 22 22 23 23 23 23 23 23 23 24 24 24 24 24 24 24 24 24 24 24 25 25 25 24 26 26 18 16 18 18 18 18 18 18 18 18 19 19 19 19 20 21 21 21 22 23 24 25 25 24 22 24 26 27 27 28 27 25 25 26 27 26 27 28 29 29 26 24 24 30 28 14 12 17 19 21 21 23 25 24 24 23 24 24
24 24 24 24 24 24 24 24 24 24 24 24 24 24 25 25 25 25 26 26 26 26 26 27 27 27 27 27 29 27 21 21 22 21 20 20 19 20 20 21 21 21 21 21 21 21 21 22 23 23 24 25 26 25 24 26 28 28 28 30 28 27 28 28 29 27 27 28 27 27 26 24 24 30 26 17 15 19 21 23 23 25 25 23 24 24 26 26
26 25 25 25 25 25 25 26 26 26 26 25 25 25 26 26 26 27 27 27 28 28 28 28 29 29 30 30 29 27 26 26 25 24 24 23 22 22 22 22 23 23 23 22 22 23 23 23 24 24 24 25 26 26 26 26 26 26 27 29 29 30 31 29 28 25 24 26 24 24 26 26 25 27 24 19 18 21 23 23 23 25 25 24 25 26 27 26
28 27 27 27 27 26 27 27 27 27 27 27 27 27 27 28 28 28 28 28 29 29 30 30 30 31 32 32 29 27 29 28 27 26 25 24 24 24 23 24 25 25 25 25 24 25 25 24 25 26 26 27 27 27 28 28 28 28 28 31 33 34 34 27 25 23 23 25 23 21 27 31 28 25 24 20 20 22 24 25 23 24 25 25 26 27 27 26
30 30 29 29 28 28 28 28 28 28 28 28 28 28 29 29 30 29 29 29 30 31 31 31 32 32 34 33 29 29 30 29 28 27 26 26 26 26 26 27 27 27 28 27 26 26 27 27 27 27 27 27 28 29 31 31 30 31 30 33 34 35 35 28 25 25 25 26 25 21 27 34 33 27 27 26 25 27 28 27 25 25 25 26 26 28 29 28
31 31 31 31 30 30 30 30 29 29 28 29 29 29 29 30 31 31 31 31 31 32 32 33 34 34 37 35 31 31 31 29 28 26 26 26 25 26 28 29 29 30 30 29 28 28 29 30 29 29 27 26 27 30 33 31 30 30 31 34 35 35 36 31 28 29 28 26 26 23 27 33 37 31 30 32 33 34 33 30 27 27 28 29 29 29 29 29
30 31 31 32 32 32 32 32 31 30 30 29 29 30 30 31 32 32 33 33 33 34 33 35 35 35 38 36 31 30 29 28 26 24 24 24 24 26 27 28 29 30 31 30 30 30 32 31 30 28 27 26 27 31 31 29 31 32 33 36 36 35 34 33 34 34 31 27 27 27 28 33 39 37 34 35 37 37 36 34 30 29 30 31 32 32 31 30
29 29 30 31 31 32 33 33 33 32 32 31 30 30 30 31 31 32 33 34 35 36 35 37 37 38 39 36 32 30 28 27 26 24 24 23 24 25 26 28 30 31 31 31 30 31 32 30 29 28 26 26 29 31 27 26 34 37 35 35 34 34 32 34 39 37 34 32 29 30 32 38 44 41 37 37 37 38 38 36 33 32 32 32 33 34 34 32
29 29 29 29 30 31 32 33 33 34 33 33 33 32 32 33 33 33 34 34 36 36 38 39 39 40 38 33 30 28 26 25 24 23 21 22 24 24 25 27 29 31 31 32 33 34 32 31 31 29 29 31 33 35 32 31 38 39 36 35 35 35 33 36 41 39 36 35 31 30 35 43 47 44 41 39 37 38 39 37 35 35 35 34 34 35 35 34
29 29 29 29 29 30 31 31 31 32 32 32 33 34 34 34 35 35 35 36 36 37 38 39 38 39 37 33 31 31 29 28 28 27 26 27 28 28 28 30 32 32 32 33 34 34 33 33 33 32 35 39 39 40 40 39 40 38 36 36 37 37 37 40 43 40 36 35 35 36 43 49 50 48 45 42 38 37 38 38 38 38 37 37 37 37 37 36
30 30 30 29 29 30 31 30 30 31 31 31 31 32 33 34 36 36 37 38 37 37 38 39 41 40 39 38 37 36 34 33 32 30 30 31 31 32 32 34 37 37 36 37 36 34 34 35 37 37 39 40 38 38 40 40 37 36 36 37 39 39 41 45 44 40 36 37 41 43 48 52 50 50 48 44 40 37 38 39 39 40 39 39 40 40 38 34
31 31 31 31 31 31 31 31 31 30 31 30 29 30 31 33 35 36 38 39 38 37 39 40 41 43 42 40 39 37 36 36 34 33 34 33 32 33 34 36 39 40 38 37 37 37 38 41 42 41 40 38 37 39 40 41 38 37 37 39 41 39 44 48 43 41 39 40 46 48 50 52 49 50 49 45 44 41 39 38 39 41 42 42 41 39 35 30
31 32 32 31 32 32 32 32 32 31 31 31 30 30 31 32 34 37 40 43 41 38 40 40 40 44 42 39 39 38 38 39 36 37 35 33 34 35 37 39 41 42 40 37 39 42 44 47 45 42 39 37 38 40 40 40 38 37 37 40 43 41 44 49 44 43 42 43 48 48 48 51 49 50 49 46 46 44 41 39 39 40 42 41 38 35 31 26
32 33 32 32 32 33 33 33 33 33 32 31 31 31 32 33 35 36 40 45 46 40 40 41 41 43 40 39 40 38 40 42 40 39 35 33 37 37 39 42 43 44 42 41 44 46 48 48 44 39 37 37 39 39 37 36 37 38 39 41 45 43 42 48 47 44 44 45 45 47 49 52 51 50 50 47 44 42 40 39 39 40 40 39 36 33 29 25
33 33 33 33 32 33 33 32 33 33 32 32 32 32 32 33 35 37 40 46 49 46 41 40 41 42 40 39 39 38 42 43 42 42 37 36 38 38 41 43 43 46 45 44 46 50 52 48 44 41 40 40 41 41 38 36 40 44 44 43 45 45 42 46 48 44 45 45 44 45 47 51 52 48 49 45 41 41 41 40 41 42 41 38 34 30 26 25
32 32 33 32 32 32 33 32 32 32 32 31 31 31 31 32 34 36 40 44 49 49 44 42 41 40 38 38 39 39 42 45 44 43 40 40 39 39 42 42 44 48 46 44 47 53 53 47 44 43 41 40 41 42 38 35 43 49 46 42 43 44 42 43 42 39 41 39 37 35 28 34 42 40 45 47 43 45 45 44 45 42 39 35 32 28 24 22
31 31 32 31 30 31 31 31 31 31 31 30 29 30 29 31 32 33 38 41 44 45 40 35 33 31 32 31 31 31 35 42 42 40 40 41 40 41 43 45 46 47 46 44 45 49 50 45 43 41 40 39 37 38 37 36 42 48 46 41 41 41 40 41 37 33 32 29 28 21 13 23 40 42 47 49 46 47 46 43 43 39 36 34 30 26 21 18
31 31 31 31 30 29 30 30 29 30 30 28 29 29 28 30 29 30 33 28 27 29 26 21 20 22 21 16 15 18 26 32 31 30 31 32 35 40 43 48 48 47 47 42 39 43 46 43 41 40 38 35 34 36 38 35 38 45 44 40 39 38 38 37 33 31 31 34 33 21 14 22 43 50 48 47 44 44 45 44 43 39 35 32 26 21 18 17
32 32 32 32 31 29 29 29 29 29 29 29 29 27 27 28 27 28 25 12 9 16 16 14 15 16 15 14 14 17 23 28 28 26 24 23 27 32 36 42 44 46 47 43 43 47 45 42 41 36 30 31 37 39 38 34 36 43 42 40 39 37 36 33 31 30 29 33 30 20 16 16 38 53 42 36 37 37 44 43 37 33 29 26 22 19 20 19
35 35 34 34 33 30 30 30 29 29 30 30 29 28 28 27 26 26 19 8 9 17 20 21 21 19 21 24 22 20 22 25 27 26 24 22 24 27 30 34 34 39 42 43 49 48 44 44 43 36 33 38 42 40 38 36 37 40 39 39 36 32 31 28 28 29 25 26 19 13 14 10 34 57 35 22 29 31 36 32 25 27 27 25 23 21 19 18
39 40 39 39 37 33 33 32 29 30 32 30 29 29 28 26 24 19 11 12 15 19 22 24 23 22 25 27 25 24 25 24 25 26 25 25 26 28 31 33 32 34 36 39 45 45 43 46 45 41 41 44 42 38 38 37 36 38 37 36 33 30 30 26 27 26 17 19 19 20 23 16 25 38 19 11 18 17 18 18 22 28 26 25 23 19 19 21
38 39 41 43 42 39 39 36 32 32 32 31 29 28 26 24 21 11 10 19 23 22 27 27 24 25 26 26 26 27 27 27 27 27 27 29 30 33 35 34 33 33 35 39 42 42 42 44 45 45 45 43 41 40 39 37 37 36 34 34 30 23 21 16 16 14 7 11 15 17 22 22 25 19 8 4 6 9 14 17 25 26 20 22 21 22 27 30
36 35 37 41 42 42 43 41 38 36 35 34 29 27 25 19 18 23 26 25 16 11 15 15 15 17 18 20 23 24 25 28 28 27 29 31 33 37 37 36 35 30 30 35 37 38 42 44 43 42 42 41 39 40 39 38 39 37 35 31 20 8 6 5 3 4 7 14 16 13 13 23 39 37 28 26 24 26 30 26 26 24 17 18 21 26 32 30
36 35 36 38 39 40 40 40 38 37 37 36 30 29 24 12 19 36 38 28 16 10 11 13 16 17 16 19 23 22 24 27 28 27 29 32 36 39 38 38 38 32 30 32 32 32 35 40 40 38 39 39 40 41 39 38 38 38 38 31 18 5 1 3 4 3 9 19 23 20 16 21 32 36 33 34 32 28 28 25 24 26 22 19 21 23 25 27
38 37 38 38 39 39 38 38 38 35 31 29 29 27 20 17 28 38 31 25 24 21 21 23 26 25 23 26 26 24 25 27 28 28 29 33 38 40 40 40 39 38 38 36 34 29 23 30 40 37 34 37 39 38 34 35 37 38 36 30 26 19 8 4 7 6 6 15 19 13 13 17 23 26 28 32 34 31 32 33 29 29 29 22 22 19 22 29
39 39 39 40 40 40 38 37 37 35 30 28 28 24 23 28 38 37 28 22 21 20 23 26 28 29 30 31 30 28 28 28 30 30 31 35 39 40 41 40 38 39 38 32 32 30 26 36 47 41 38 41 40 36 30 28 33 36 30 25 29 30 25 18 19 20 9 10 16 12 16 32 42 46 52 49 48 43 38 37 31 28 27 21 24 22 23 26
41 40 40 41 41 39 37 36 35 35 32 31 29 29 32 37 38 34 29 23 21 21 24 27 28 29 29 29 28 27 26 28 30 31 32 35 39 41 43 41 38 38 38 35 34 31 27 36 46 41 38 39 36 33 30 26 28 29 25 28 32 33 33 26 20 24 13 7 19 18 19 39 46 48 46 34 29 25 20 24 24 22 23 20 22 22 19 19
43 43 43 43 41 38 37 36 35 34 31 31 34 37 41 44 42 39 36 33 31 26 22 24 23 21 19 18 19 19 20 25 30 32 33 33 35 39 41 39 38 38 39 39 40 39 33 36 45 45 41 37 32 27 27 31 33 29 26 30 29 23 26 23 8 7 7 5 18 26 25 32 32 28 25 18 23 28 23 24 25 23 25 23 22 19 13 15
45 45 47 46 42 38 37 36 35 35 32 33 39 43 45 47 47 47 45 43 40 32 27 27 26 26 23 20 20 19 16 19 24 27 30 31 32 34 34 34 35 35 35 36 40 44 40 34 38 45 46 42 37 30 28 33 34 34 34 32 25 16 16 19 11 4 7 5 10 25 30 32 35 38 37 32 30 29 23 21 19 18 22 23 19 16 13 17
47 47 49 49 43 37 36 35 34 35 34 36 42 45 48 49 47 45 44 44 41 39 37 36 36 36 34 31 31 29 24 23 22 22 24 25 25 27 25 24 26 27 27 30 35 39 38 31 27 36 45 42 39 38 36 35 32 34 37 34 32 27 17 19 19 13 11 8 8 16 19 27 42 43 36 26 19 18 17 17 16 13 16 19 16 17 20 22
48 48 50 51 45 39 36 34 34 34 38 43 46 49 51 50 48 46 44 42 42 41 41 41 41 38 36 36 37 37 37 35 30 26 25 25 26 26 23 20 20 20 21 24 29 35 38 36 29 31 38 38 40 45 43 40 36 35 39 38 37 34 24 18 20 23 20 10 6 8 8 28 49 41 30 28 25 25 22 18 21 22 23 24 20 20 25 26
46 47 51 51 45 38 33 31 32 35 39 44 47 50 52 50 51 51 47 45 44 42 41 43 42 40 39 39 39 39 39 39 37 32 29 31 32 29 25 22 22 21 21 21 25 31 34 33 30 30 34 39 45 48 46 43 38 34 37 37 36 37 29 16 12 24 31 19 12 12 7 27 55 51 44 47 41 39 35 29 33 36 31 29 28 28 30 29
44 45 48 49 44 37 32 32 36 38 41 45 47 48 48 48 49 49 48 48 47 45 44 43 44 43 43 42 42 42 40 41 42 40 38 40 40 36 32 30 29 24 19 17 19 24 28 28 29 31 35 38 41 42 42 41 35 29 29 31 31 34 33 24 14 20 29 24 24 24 13 25 55 59 53 56 53 52 50 43 42 42 38 37 39 41 37 31
42 43 44 44 41 36 33 35 38 41 45 47 47 46 45 46 47 47 46 46 45 44 44 44 45 45 45 44 43 43 43 43 46 47 45 44 44 44 40 37 36 32 26 23 23 26 28 27 29 32 35 37 39 42 44 44 36 27 26 29 30 32 36 37 33 30 28 25 25 21 11 21 47 54 51 52 52 50 49 48 46 44 44 43 42 40 34 31
41 41 41 41 38 36 37 39 40 43 46 46 46 47 46 46 48 49 49 47 45 45 45 46 46 45 46 46 45 46 45 42 45 49 47 46 48 49 46 42 42 41 41 40 39 38 34 29 25 19 18 22 26 29 37 45 42 33 32 35 37 38 38 38 40 36 26 27 31 20 10 23 42 49 51 53 56 56 54 54 55 51 46 39 33 32 31 33
39 40 39 38 37 37 39 41 40 43 44 44 46 47 46 46 48 49 50 49 48 48 48 48 47 46 46 45 44 47 47 45 46 48 48 51 54 55 52 48 44 44 46 48 50 50 45 40 32 20 10 10 14 18 30 39 36 32 37 43 44 41 35 33 35 28 18 26 36 26 21 36 46 48 54 59 61 60 55 54 57 55 46 38 36 39 40 41
37 38 38 36 35 36 39 39 38 40 41 42 45 46 46 48 50 49 51 52 52 51 50 48 47 46 46 46 46 47 48 49 49 49 52 55 55 55 54 51 47 45 46 49 50 50 49 46 45 40 33 31 33 37 41 37 31 30 35 38 39 37 35 33 30 27 28 31 35 37 40 48 50 50 57 62 60 58 58 58 57 53 48 47 51 56 57 56
34 35 35 31 27 26 31 35 36 38 39 39 43 45 46 47 47 47 48 50 51 50 48 47 47 47 48 48 48 48 48 49 49 51 53 54 55 56 55 54 52 48 46 49 50 48 47 45 47 50 50 50 51 51 50 46 44 46 46 44 44 43 43 43 39 42 45 34 30 44 52 52 54 57 60 62 61 62 64 60 54 51 52 52 54 58 60 60
33 34 33 29 26 24 25 27 29 33 35 37 40 41 42 44 45 45 46 47 47 46 45 45 46 47 49 49 48 48 47 46 48 51 52 52 53 54 55 55 54 50 48 50 52 51 49 46 46 49 51 53 54 52 51 53 55 57 55 52 54 54 53 54 54 57 56 44 41 52 55 55 60 60 60 62 60 59 58 53 50 52 53 50 50 53 54 53
31 33 32 31 33 34 34 33 34 35 36 37 39 38 36 39 41 42 41 40 42 44 45 47 48 48 49 50 50 52 50 48 51 53 52 52 51 52 55 56 54 52 48 48 51 50 48 46 43 47 52 55 54 53 54 56 58 59 58 56 57 58 59 61 62 63 60 57 59 61 60 64 66 63 64 62 57 55 54 49 47 49 48 47 48 50 50 50
30 32 33 33 35 36 37 39 39 40 40 40 44 45 43 43 44 43 41 39 37 37 36 37 39 39 40 42 43 48 52 51 51 50 45 42 40 42 47 50 51 53 51 49 49 46 45 46 44 45 50 52 52 55 56 56 59 60 58 57 58 59 62 65 65 63 59 59 64 65 64 69 68 63 62 57 53 55 53 48 47 49 50 50 49 52 55 57
31 31 31 34 36 36 36 38 39 40 41 42 44 44 42 43 44 44 47 49 46 42 38 35 34 33 33 34 33 35 40 41 40 39 38 37 35 34 36 39 40 41 43 44 43 41 43 46 44 40 40 44 49 52 52 55 60 61 59 58 59 62 65 66 64 63 61 62 66 64 62 66 64 59 57 53 49 50 49 49 50 51 51 52 52 56 60 61
30 31 30 31 35 37 36 37 37 40 43 43 43 42 37 35 37 36 38 42 41 40 41 42 42 42 41 40 37 34 35 37 38 39 39 41 42 42 42 43 42 40 40 40 40 42 44 47 47 42 37 41 45 47 50 50 42 43 54 60 61 63 66 65 63 62 62 64 65 62 62 65 62 57 57 55 50 50 52 53 53 53 54 54 55 59 62 62
Wind_Direction
270 271 272 275 277 280 282 284 286 289 291 291 294 294 294 295 295 295 293 292 291 291 288 286 284 281 278 276 275 273 272 275 276 292 294 277 279 275 272 281 291 298 305 309 307 307 308 307 309 310 312 311 314 308 298 302 293 291 289 281 290 311 295 276 284 278 273 279 286 295 300 299 301 301 298 296 293 289 285 286 287 284 279 277 277 276 273 267
271 271 271 272 273 275 277 278 281 282 284 286 287 288 288 288 288 289 287 286 285 284 283 283 282 281 280 279 278 276 276 273 275 290 277 269 271 264 262 269 281 289 290 292 293 294 293 292 291 289 289 292 297 290 286 290 285 287 283 278 291 308 294 280 273 262 264 273 282 292 297 296 298 300 296 295 296 287 287 295 288 280 282 284 280 275 273 271
272 272 271 271 271 272 273 275 277 278 280 281 282 283 284 284 284 284 284 283 282 281 281 280 279 278 278 278 278 277 278 277 279 280 265 267 271 266 262 264 276 284 282 281 282 284 284 285 281 275 277 283 286 279 281 284 281 279 271 276 297 302 290 282 275 271 272 278 286 293 294 295 299 299 292 293 293 284 289 297 282 279 285 282 278 276 273 270
272 272 271 272 272 272 273 274 275 277 278 279 280 280 281 281 281 282 283 283 281 281 280 280 279 278 277 276 277 277 278 279 282 275 265 269 269 263 259 261 272 279 278 276 275 276 277 280 279 278 280 284 285 281 283 285 282 274 268 278 297 295 290 286 281 279 282 287 291 293 292 294 298 295 291 295 291 285 291 288 277 279 281 277 277 278 273 267
273 272 272 272 273 273 274 275 275 276 277 278 278 279 279 279 279 279 280 281 282 282 281 281 280 279 278 277 278 278 279 284 285 274 265 264 259 254 254 259 269 276 274 272 273 273 274 276 276 278 280 281 282 280 283 285 282 276 273 283 291 293 292 290 286 282 285 289 290 292 292 293 293 290 292 293 287 289 295 281 278 280 275 274 276 275 270 264
275 274 274 274 274 274 274 274 275 275 276 277 277 278 278 278 278 277 277 277 278 279 280 280 280 279 278 278 278 277 277 281 283 277 272 268 263 262 264 267 271 273 272 271 270 271 272 273 272 274 277 277 276 277 280 279 278 278 277 282 290 297 294 291 290 289 292 291 290 292 290 289 289 290 292 288 283 290 290 278 281 283 277 274 271 270 269 263
276 275 276 275 275 275 275 275 275 275 276 276 277 278 278 278 278 277 277 276 276 276 277 277 278 278 277 275 275 274 272 274 278 278 277 275 273 272 273 274 275 275 275 272 269 269 270 270 273 276 274 274 274 274 275 274 274 276 277 283 291 293 291 291 291 293 294 290 290 290 286 286 289 292 289 284 284 289 288 282 280 278 277 278 276 273 270 263
275 276 276 276 276 277 277 277 276 276 276 277 277 278 278 278 278 278 278 277 276 275 275 275 275 276 276 275 274 271 270 275 276 276 276 275 276 277 276 277 278 278 276 273 271 269 268 270 274 274 273 275 277 277 277 276 275 275 280 287 288 286 286 288 288 290 289 288 288 285 285 287 291 290 284 284 292 293 288 279 271 269 273 277 279 278 274 270
273 274 275 275 276 277 277 277 277 277 278 278 278 279 279 279 279 279 279 279 279 277 276 275 274 275 274 275 274 271 272 277 275 273 272 271 273 275 277 279 279 279 278 277 274 271 271 274 274 272 275 278 279 278 277 275 274 276 281 283 283 283 286 287 287 288 288 289 289 287 288 288 290 285 281 293 311 299 288 277 271 269 269 273 277 279 279 278
269 270 272 273 274 275 276 276 276 276 277 278 278 279 279 280 279 279 279 279 279 279 279 277 276 275 274 274 273 272 276 279 274 272 272 271 273 274 275 278 279 280 281 279 276 274 275 275 274 273 275 276 276 277 275 271 271 274 275 277 280 283 286 287 286 289 292 291 291 290 290 287 284 276 279 314 325 297 284 274 270 266 266 271 275 279 282 282
268 269 270 271 272 273 274 274 275 275 275 276 277 278 278 279 279 280 280 280 279 279 279 278 278 276 275 274 272 274 279 277 273 272 273 274 274 275 276 277 279 280 280 279 278 277 276 274 273 273 272 274 276 277 276 272 272 274 273 275 279 281 283 284 287 293 294 290 291 291 287 283 277 272 284 318 312 288 278 271 266 265 267 271 273 277 280 282
268 268 269 269 270 271 273 273 274 275 275 276 277 277 278 278 278 278 279 279 279 279 278 278 278 277 277 273 272 276 278 274 273 273 273 275 275 275 276 276 278 279 279 278 278 278 277 274 272 271 270 271 275 277 277 276 275 274 275 277 280 281 280 284 291 297 292 287 291 288 281 280 278 280 297 311 300 289 283 279 273 270 270 271 272 276 278 281
268 268 268 268 269 269 270 271 272 273 274 275 276 277 278 278 278 278 278 279 279 279 279 279 278 279 277 274 272 275 274 274 275 274 275 276 276 275 275 275 275 276 277 278 278 278 276 273 270 269 269 271 274 275 275 274 272 273 275 278 281 281 281 293 300 297 290 286 291 284 274 283 289 294 306 306 298 294 291 290 284 277 274 271 272 275 278 280
270 269 269 269 269 268 269 269 270 271 272 273 274 275 276 277 278 278 279 278 278 278 279 280 280 280 278 274 272 272 273 274 275 276 278 277 275 274 273 273 273 274 275 276 277 276 275 273 269 267 269 271 274 274 272 270 270 274 276 275 277 276 282 299 304 296 292 289 295 282 266 286 299 300 307 307 301 298 296 297 292 285 279 275 275 275 278 280
270 270 270 270 270 270 269 269 269 270 270 271 272 273 274 275 276 277 278 278 278 277 278 279 279 280 279 276 273 273 275 276 278 279 279 277 275 273 271 271 272 272 272 273 274 274 273 271 269 268 269 271 273 271 269 269 271 274 273 273 275 275 285 300 299 293 295 291 292 278 262 286 301 301 305 306 302 300 299 298 293 288 285 282 281 279 279 282
272 271 271 270 270 270 270 270 270 270 270 271 271 272 273 273 274 275 276 276 276 276 277 277 277 278 279 277 275 275 277 279 281 279 276 276 274 273 272 272 271 271 272 272 272 271 270 269 268 268 267 268 269 268 269 271 272 271 269 272 277 280 289 298 295 293 297 291 285 278 270 285 296 299 302 302 301 301 298 296 292 287 286 285 285 284 284 286
274 274 273 273 273 271 271 270 270 270 270 271 271 272 272 273 273 273 274 274 274 275 276 275 275 275 276 277 278 278 279 281 281 278 276 274 272 271 271 271 271 270 270 270 270 270 268 266 266 265 266 268 267 265 264 264 269 272 272 275 281 288 291 293 292 293 296 291 284 281 276 281 292 297 298 299 299 297 293 292 290 286 284 283 285 287 289 289
276 277 277 277 277 276 274 273 272 271 271 271 271 271 271 271 272 272 272 272 272 273 273 273 274 275 276 278 279 278 277 279 280 278 277 274 272 271 270 270 270 270 270 270 269 267 265 266 265 263 264 264 263 260 256 262 274 279 281 283 286 289 287 287 289 291 292 287 280 278 275 281 292 296 295 295 295 292 290 288 286 284 283 284 285 287 290 290
277 277 278 279 280 280 279 279 278 276 274 273 273 273 273 272 272 271 270 270 270 270 272 273 273 272 275 278 277 277 276 275 275 275 275 273 272 272 271 270 269 269 271 271 269 267 267 267 262 260 263 264 265 265 266 276 285 286 286 286 286 285 283 284 287 289 288 280 273 272 276 283 291 293 293 292 291 288 286 284 283 283 284 285 286 288 289 288
277 278 279 280 280 281 281 283 283 283 282 280 278 278 277 276 275 273 271 269 269 269 270 272 273 273 274 276 275 277 278 276 275 274 271 270 270 271 270 269 269 269 269 270 271 272 271 266 260 261 266 269 272 275 279 285 286 284 284 283 283 282 282 285 287 289 286 276 272 276 280 284 288 291 291 291 289 284 280 280 281 284 286 287 288 288 287 287
277 278 280 281 282 282 282 284 284 285 286 286 286 285 283 282 281 280 277 273 270 270 269 270 272 273 273 274 276 277 279 277 275 271 267 268 269 270 269 268 269 269 269 272 274 273 269 263 262 266 271 275 277 279 281 282 281 280 281 281 281 279 281 286 287 288 285 276 276 282 283 283 286 288 289 289 286 282 280 280 282 285 287 288 288 288 289 289
277 278 279 280 282 283 284 285 286 286 287 288 289 288 288 287 286 286 285 281 275 272 272 272 271 273 274 275 276 277 277 275 273 269 268 270 269 268 268 268 268 269 270 271 271 270 266 264 267 272 275 277 276 277 278 279 278 276 276 276 274 276 281 285 286 287 285 278 281 286 284 283 285 286 286 285 283 283 284 283 283 285 285 286 288 291 292 289
278 279 279 280 281 282 284 285 286 287 288 289 289 289 288 288 288 289 288 287 282 277 275 275 274 275 276 275 275 275 274 273 272 270 270 269 267 266 267 267 268 270 270 269 267 266 265 268 275 278 278 277 275 275 277 278 276 272 271 269 269 275 278 280 286 290 287 283 285 287 285 282 282 283 282 282 283 285 285 284 283 283 284 287 290 292 291 287
278 279 280 280 282 282 283 285 285 286 287 287 288 288 288 288 289 289 289 289 287 283 279 279 279 278 278 277 275 272 271 271 270 270 269 265 265 265 265 267 267 268 268 268 268 267 267 273 279 278 276 275 275 275 274 274 276 275 273 269 271 278 278 279 288 292 287 284 285 286 284 280 279 281 282 282 284 284 283 283 283 284 287 290 292 291 289 288
278 279 279 280 282 283 283 284 285 286 287 288 287 288 288 288 289 290 291 290 288 287 286 284 283 282 279 275 271 269 269 269 267 267 267 263 262 263 264 266 265 267 268 269 271 271 272 276 278 275 274 274 274 274 273 273 277 277 275 274 278 282 282 284 288 289 286 283 285 285 281 280 283 282 282 285 284 284 285 285 286 288 290 290 291 292 289 284
277 278 278 279 281 282 283 283 284 285 286 287 287 288 289 290 291 292 292 291 289 291 292 290 286 283 280 273 271 269 265 266 267 266 265 263 261 260 260 261 262 265 268 270 271 271 274 276 274 272 273 272 269 270 273 273 272 273 275 281 283 283 284 285 287 285 280 281 287 280 258 281 287 280 281 284 283 284 287 287 287 289 291 292 294 294 286 272
277 278 278 278 278 279 281 283 284 285 286 286 286 288 289 290 292 294 296 296 292 293 295 290 283 280 280 277 274 261 256 268 274 271 269 267 263 259 257 258 260 263 266 267 265 267 273 276 274 274 274 270 265 268 276 274 267 270 278 283 284 283 284 285 285 281 276 279 281 265 240 276 283 279 281 283 280 283 285 286 289 291 291 293 293 291 283 272
277 277 277 277 276 277 279 281 284 286 287 286 286 288 289 289 291 293 295 294 290 295 292 282 276 276 281 282 273 258 261 276 280 276 276 271 265 261 259 260 261 262 264 262 261 265 271 273 273 274 271 268 269 274 280 275 267 272 280 281 280 281 281 282 282 277 277 282 279 260 243 263 280 280 283 283 277 280 285 289 292 292 293 294 292 291 286 277
277 277 276 276 275 277 278 279 283 286 286 285 286 286 286 289 291 289 286 270 272 282 277 272 270 270 277 278 272 263 261 269 273 273 273 267 263 262 261 262 260 260 261 259 262 268 271 271 268 266 264 267 272 275 276 271 269 273 276 276 276 277 277 278 278 274 277 279 270 250 235 233 280 281 278 271 271 278 288 292 293 293 296 295 293 294 285 277
278 278 278 277 275 277 278 278 283 284 283 284 285 285 284 286 285 280 268 257 267 275 273 273 270 269 273 271 269 268 263 262 265 268 267 263 262 261 260 261 258 257 259 258 262 269 272 269 266 264 265 268 270 270 269 267 267 269 270 271 272 275 275 273 270 271 279 274 259 256 254 240 272 285 285 264 270 289 296 294 296 297 297 295 294 291 285 288
278 278 279 279 278 278 276 277 280 281 281 281 281 281 281 281 276 258 243 263 273 275 272 272 271 271 273 271 270 269 265 261 259 259 261 261 261 259 257 258 257 255 257 258 262 269 270 267 268 270 270 269 268 268 267 266 265 266 265 265 269 276 278 274 265 259 257 265 262 272 269 244 241 267 316 301 286 311 297 292 296 294 293 294 292 292 295 300
276 277 278 279 280 280 279 279 278 279 280 280 279 276 273 270 256 242 246 263 278 281 269 267 272 276 279 273 267 263 260 260 259 256 257 259 260 260 260 260 259 254 254 259 264 269 268 268 271 273 272 270 267 264 263 264 263 261 256 254 256 277 295 280 245 219 234 252 262 276 266 240 243 256 271 273 278 288 286 288 290 287 288 286 287 295 299 301
272 273 273 275 278 280 282 282 280 280 280 278 277 271 259 241 247 251 251 254 255 258 269 278 282 284 283 272 266 264 260 261 263 261 257 257 257 258 259 260 258 253 254 260 264 267 270 271 270 266 266 268 263 258 258 264 265 260 253 245 235 214 67 258 248 263 257 259 267 266 249 247 259 269 276 279 285 291 289 288 286 285 285 272 274 295 301 297
270 270 270 271 272 273 277 280 280 280 277 274 273 261 233 219 246 254 254 254 257 264 273 276 278 279 277 272 269 266 262 264 268 266 260 257 255 256 256 257 257 256 255 255 257 261 265 270 270 265 265 268 265 262 266 272 271 265 261 253 239 226 207 218 244 245 258 279 278 243 217 254 273 278 284 289 291 292 291 290 283 280 283 266 251 276 301 298
270 269 269 268 267 268 272 275 277 278 276 276 270 246 224 234 250 255 258 260 263 268 268 269 273 275 273 272 270 266 263 264 265 263 259 258 258 260 260 259 259 258 253 248 252 257 255 264 273 272 268 269 269 267 266 263 261 261 255 241 239 243 241 238 247 255 269 308 281 224 225 265 274 278 283 286 288 289 290 287 278 272 279 263 242 263 294 294
272 271 269 268 267 269 269 270 273 276 275 274 260 240 245 258 262 264 267 271 274 273 270 271 272 271 270 270 268 268 265 261 261 259 257 258 259 261 261 262 263 260 257 254 257 259 253 262 275 277 273 273 271 266 260 250 250 253 242 235 248 256 248 238 247 263 270 292 273 254 253 272 281 287 287 288 293 296 292 285 276 270 276 267 255 269 287 282
275 274 272 270 269 269 268 266 268 271 273 268 253 249 260 268 268 270 272 275 277 274 271 272 271 266 269 275 277 281 276 263 259 255 254 256 258 261 263 265 266 263 263 264 263 262 260 264 271 274 274 274 269 263 256 246 240 237 241 251 257 251 240 235 233 274 259 246 271 269 268 277 283 284 283 285 293 295 292 287 282 278 275 265 257 264 272 272
276 276 274 272 272 271 269 267 264 265 268 265 257 259 264 265 267 271 272 271 271 267 260 259 261 261 266 273 276 282 281 268 261 257 255 257 261 267 269 270 269 267 268 267 262 261 260 259 263 267 269 271 269 262 249 241 235 234 245 253 247 235 227 221 205 225 246 222 264 271 273 277 272 271 280 289 292 296 302 296 289 287 279 264 255 256 263 275
275 275 273 272 273 271 268 267 264 262 260 257 256 259 261 263 267 271 274 274 273 269 263 262 263 264 266 268 266 267 268 267 268 267 264 262 265 273 276 276 276 274 274 269 263 263 262 255 254 260 263 266 265 258 247 241 238 236 240 241 240 244 236 218 213 212 232 235 251 267 275 275 271 274 282 291 299 303 309 306 296 301 291 270 260 265 268 274
273 274 272 271 272 271 270 269 264 257 252 252 254 257 259 264 268 270 273 275 274 271 270 270 270 267 268 268 266 266 264 262 266 269 269 265 264 270 273 272 273 271 271 269 265 265 260 252 249 251 253 254 253 254 255 256 253 242 236 235 239 244 239 234 231 224 229 241 249 252 260 267 270 274 277 282 291 292 295 302 290 290 294 278 265 271 272 265
272 272 271 271 272 272 270 265 258 253 252 253 256 258 260 263 266 267 269 271 272 272 273 273 272 270 270 269 268 269 265 264 265 262 257 255 254 257 260 260 265 267 267 265 262 259 252 248 250 250 246 248 254 261 266 268 266 257 246 242 246 249 243 240 240 235 239 242 244 251 251 261 266 271 275 278 283 284 286 293 288 286 290 279 268 273 273 260
269 269 270 271 272 271 267 261 259 258 256 257 260 263 265 267 268 268 269 270 272 272 272 271 271 271 271 270 271 272 269 268 269 263 256 255 252 249 251 255 259 261 261 261 256 252 249 250 255 254 251 254 261 266 269 270 269 262 250 245 249 253 248 245 250 251 251 250 252 256 252 257 265 270 275 278 281 283 285 287 289 287 284 281 277 277 276 261
269 268 269 270 269 268 265 261 260 259 259 262 266 268 268 269 271 272 272 272 270 270 271 271 271 271 271 272 273 273 272 272 273 271 267 265 262 260 263 265 262 256 254 256 251 247 249 251 255 258 258 259 260 261 263 267 266 257 249 250 255 260 261 260 260 260 261 259 255 256 251 257 267 272 277 280 282 284 284 284 288 290 288 287 280 273 273 267
270 270 269 269 267 262 257 254 256 258 261 266 269 269 269 270 271 272 272 271 270 272 273 273 273 272 272 273 271 270 271 270 272 274 273 272 272 273 274 275 272 267 264 262 258 257 256 249 245 253 262 261 259 258 257 257 257 258 260 263 265 267 267 264 260 259 258 256 255 257 262 261 266 271 275 278 278 279 283 284 285 288 289 285 274 263 266 270
270 269 268 268 264 259 256 255 257 258 261 265 266 267 269 269 270 271 271 270 271 273 273 273 273 273 272 271 269 269 270 269 269 272 274 274 276 277 277 276 275 274 273 269 264 262 260 251 242 233 224 234 238 241 247 248 250 255 259 262 264 261 256 253 255 257 255 254 252 250 260 264 265 270 276 282 284 282 286 292 290 287 281 269 261 261 264 268
270 268 268 266 262 259 259 260 260 259 259 261 262 264 265 266 268 270 270 271 272 273 272 271 271 271 269 268 267 268 270 269 268 267 268 272 276 278 279 279 278 277 275 273 268 263 258 253 250 243 235 236 238 241 248 250 250 253 257 260 260 254 250 246 244 247 253 255 251 250 258 263 264 269 277 286 291 288 290 295 295 291 284 273 268 267 267 269
270 267 267 266 262 259 260 261 261 260 260 261 261 262 264 266 269 269 269 270 272 273 272 270 269 267 266 267 268 267 267 267 265 262 264 268 273 277 279 280 281 279 274 272 270 263 253 251 254 251 244 244 246 249 254 256 257 259 260 261 261 258 256 251 246 251 254 252 251 257 261 262 264 270 275 281 288 290 290 293 293 293 292 288 281 276 275 275
270 268 265 260 253 249 251 254 253 252 253 254 256 260 264 266 266 267 270 273 274 273 270 268 268 268 269 270 269 266 266 265 263 262 264 266 270 275 279 280 281 280 275 271 269 263 253 249 255 258 254 253 253 256 260 260 261 260 258 260 264 263 260 256 254 255 253 248 253 263 265 264 266 270 273 278 285 289 290 291 291 290 290 290 287 285 283 282
269 269 266 259 252 250 252 251 247 245 246 246 248 252 256 260 262 262 265 270 271 269 267 267 270 273 276 276 270 264 262 262 263 265 267 267 270 272 274 276 278 278 274 270 267 263 254 250 259 266 262 258 257 258 261 262 260 256 254 258 262 261 260 258 256 257 256 255 259 265 265 264 268 271 272 277 283 285 286 288 287 286 284 283 286 289 286 284
268 266 265 262 257 258 259 256 250 248 247 246 248 250 252 257 263 265 264 264 267 268 266 268 270 269 269 269 264 260 260 260 262 266 267 269 272 271 270 272 275 276 273 268 265 261 254 255 265 267 259 253 254 257 258 257 254 251 252 257 259 258 257 256 255 256 257 260 264 265 261 262 268 273 272 276 282 282 282 281 280 281 281 279 283 286 285 286
271 267 266 265 264 264 263 259 253 249 248 249 250 252 254 257 262 266 266 264 266 270 268 266 268 263 258 258 256 257 259 257 257 261 262 263 265 265 265 268 270 273 272 267 263 259 255 260 264 258 250 249 253 256 255 253 251 247 248 255 257 255 254 255 256 257 258 262 266 264 259 262 271 277 275 277 280 279 278 277 276 280 283 283 284 286 287 289
273 270 268 266 267 268 266 261 255 249 251 254 251 248 252 255 254 258 264 263 262 265 266 266 267 268 267 267 268 268 268 264 263 264 262 259 260 258 258 260 261 262 263 263 265 264 263 263 260 253 248 248 252 256 256 254 249 241 244 253 258 257 256 257 257 259 262 264 262 260 261 268 275 278 275 275 277 277 279 282 283 283 284 284 284 285 288 289
Height
3190 3190 3190 3190 3189 3189 3189 3189 3189 3189 3189 3189 3189 3189 3189 3188 3188 3188 3188 3188 3187 3187 3187 3187 3187 3186 3186 3186 3186 3185 3185 3185 3185 3185 3185 3184 3184 3184 3183 3183 3183 3182 3182 3182 3181 3181 3180 3180 3179 3179 3178 3178 3177 3177 3176 3176 3175 3174 3174 3173 3173 3173 3172 3172 3171 3171 3171 3170 3170 3169 3169 3168 3168 3167 3166 3166 3165 3164 3163 3162 3162 3161 3160 3160 3160 3161 3161 3161
3189 3189 3189 3189 3188 3188 3188 3188 3188 3188 3188 3188 3187 3187 3187 3187 3187 3187 3186 3186 3186 3186 3186 3185 3185 3185 3185 3184 3184 3184 3184 3184 3184 3185 3184 3183 3182 3182 3182 3182 3181 3181 3181 3180 3180 3180 3179 3179 3178 3178 3177 3177 3176 3176 3175 3175 3174 3173 3173 3172 3172 3172 3171 3171 3170 3170 3170 3169 3169 3168 3167 3166 3166 3166 3165 3164 3164 3162 3161 3161 3160 3159 3159 3159 3159 3159 3159 3159
3188 3188 3188 3187 3187 3187 3187 3187 3187 3187 3187 3186 3186 3186 3186 3186 3186 3185 3185 3185 3185 3185 3184 3184 3184 3183 3183 3183 3183 3183 3183 3183 3183 3183 3182 3181 3181 3181 3181 3180 3180 3180 3179 3179 3179 3178 3178 3177 3177 3176 3176 3176 3175 3174 3174 3174 3173 3172 3171 3170 3170 3170 3169 3170 3169 3168 3168 3168 3168 3167 3165 3164 3164 3164 3163 3162 3162 3161 3160 3160 3159 3157 3157 3157 3157 3157 3157 3157
3187 3186 3186 3186 3186 3186 3186 3186 3185 3185 3185 3185 3185 3185 3185 3184 3184 3184 3184 3183 3183 3183 3183 3182 3182 3182 3181 3181 3181 3181 3181 3181 3181 3181 3181 3180 3180 3180 3180 3179 3179 3179 3178 3178 3178 3177 3177 3176 3175 3174 3174 3174 3173 3173 3173 3173 3172 3170 3169 3169 3169 3169 3168 3168 3168 3167 3167 3167 3166 3165 3164 3163 3162 3161 3160 3160 3159 3158 3159 3158 3157 3156 3156 3155 3155 3155 3155 3155
3185 3185 3185 3185 3185 3185 3185 3184 3184 3184 3184 3184 3184 3184 3183 3183 3183 3183 3182 3182 3182 3181 3181 3181 3180 3180 3179 3179 3179 3179 3179 3179 3179 3179 3179 3179 3179 3178 3178 3178 3178 3177 3177 3177 3176 3176 3175 3175 3174 3173 3172 3172 3172 3171 3171 3171 3170 3168 3167 3167 3167 3167 3166 3166 3166 3165 3165 3165 3164 3163 3162 3161 3161 3159 3158 3158 3156 3156 3157 3156 3154 3155 3154 3153 3153 3153 3152 3152
3183 3183 3183 3183 3183 3183 3183 3183 3183 3183 3182 3182 3182 3182 3182 3182 3181 3181 3181 3181 3180 3180 3179 3179 3179 3178 3177 3177 3177 3177 3177 3178 3178 3178 3178 3177 3177 3177 3177 3176 3176 3176 3175 3175 3175 3174 3174 3173 3172 3172 3171 3170 3170 3169 3169 3169 3168 3165 3165 3165 3165 3165 3164 3163 3164 3163 3163 3162 3161 3161 3160 3159 3158 3157 3156 3155 3152 3154 3155 3154 3152 3152 3151 3151 3151 3150 3150 3150
3182 3182 3181 3181 3181 3181 3181 3181 3181 3181 3181 3181 3180 3180 3180 3180 3180 3179 3179 3179 3179 3178 3178 3178 3177 3176 3176 3175 3175 3175 3175 3176 3176 3175 3175 3175 3175 3175 3175 3174 3174 3174 3174 3173 3173 3172 3172 3171 3171 3171 3169 3168 3168 3168 3168 3167 3165 3163 3163 3164 3164 3163 3162 3162 3161 3160 3161 3160 3159 3159 3157 3157 3157 3155 3153 3151 3150 3152 3153 3152 3150 3149 3148 3148 3147 3148 3148 3148
3180 3180 3180 3180 3179 3179 3179 3179 3179 3179 3179 3179 3178 3178 3178 3178 3178 3178 3177 3177 3177 3176 3176 3176 3175 3174 3174 3173 3173 3173 3173 3174 3174 3173 3173 3173 3173 3173 3173 3172 3172 3172 3172 3171 3171 3171 3170 3169 3169 3169 3167 3167 3167 3166 3166 3164 3163 3161 3161 3162 3162 3161 3160 3160 3159 3159 3158 3157 3157 3156 3154 3155 3155 3153 3149 3147 3148 3150 3150 3149 3148 3147 3145 3145 3144 3145 3145 3145
3178 3178 3178 3177 3177 3177 3177 3177 3177 3177 3177 3176 3176 3176 3176 3176 3175 3175 3175 3175 3175 3174 3174 3173 3172 3172 3171 3171 3171 3170 3171 3172 3172 3171 3171 3171 3171 3171 3170 3170 3170 3170 3169 3169 3169 3168 3168 3168 3168 3167 3165 3165 3164 3164 3164 3162 3160 3159 3159 3159 3159 3158 3159 3158 3157 3156 3156 3155 3154 3152 3152 3152 3153 3150 3144 3144 3147 3148 3147 3146 3146 3145 3143 3142 3142 3142 3142 3142
3176 3176 3175 3175 3175 3175 3175 3174 3174 3174 3174 3174 3174 3174 3173 3173 3173 3173 3173 3172 3172 3172 3171 3170 3170 3170 3169 3169 3168 3167 3170 3170 3169 3169 3169 3169 3169 3169 3168 3168 3168 3167 3167 3167 3167 3166 3166 3166 3165 3164 3164 3163 3162 3162 3162 3160 3158 3158 3157 3156 3156 3156 3156 3155 3154 3154 3153 3151 3150 3149 3148 3149 3150 3147 3141 3143 3146 3145 3144 3143 3143 3142 3141 3141 3140 3139 3139 3138
3173 3174 3173 3173 3173 3173 3173 3172 3172 3172 3172 3172 3172 3171 3171 3170 3170 3170 3170 3169 3169 3169 3168 3167 3167 3166 3166 3166 3165 3165 3168 3168 3167 3167 3167 3167 3167 3166 3166 3166 3165 3165 3165 3165 3164 3164 3164 3163 3163 3162 3161 3160 3159 3159 3159 3158 3156 3156 3155 3153 3153 3153 3152 3152 3150 3151 3151 3148 3147 3146 3145 3145 3145 3142 3140 3142 3144 3142 3141 3140 3140 3139 3138 3139 3138 3137 3136 3136
3171 3171 3171 3171 3171 3171 3170 3170 3170 3170 3169 3169 3169 3169 3168 3168 3168 3168 3167 3167 3166 3165 3165 3164 3163 3163 3162 3162 3163 3164 3165 3164 3164 3165 3164 3165 3165 3164 3164 3163 3163 3162 3162 3162 3162 3162 3161 3161 3160 3159 3159 3158 3157 3157 3156 3155 3154 3153 3152 3150 3150 3150 3148 3148 3149 3149 3148 3145 3145 3144 3141 3140 3141 3139 3139 3141 3140 3138 3137 3137 3137 3136 3136 3136 3136 3135 3134 3134
3168 3168 3168 3168 3168 3168 3168 3167 3167 3167 3167 3167 3166 3166 3166 3165 3165 3165 3165 3164 3163 3162 3161 3161 3160 3159 3158 3158 3161 3161 3160 3161 3162 3162 3162 3163 3162 3162 3162 3161 3160 3160 3159 3159 3160 3159 3158 3158 3157 3156 3156 3155 3155 3155 3153 3152 3151 3150 3150 3148 3146 3145 3144 3146 3147 3146 3144 3142 3142 3141 3136 3134 3136 3137 3137 3138 3137 3135 3134 3134 3134 3133 3133 3133 3133 3132 3131 3131
3165 3165 3165 3165 3165 3165 3165 3165 3165 3165 3165 3164 3164 3164 3163 3163 3162 3161 3162 3161 3160 3159 3158 3158 3157 3156 3154 3154 3158 3157 3157 3158 3159 3159 3160 3160 3160 3159 3159 3158 3158 3157 3157 3157 3157 3156 3155 3154 3153 3153 3153 3153 3153 3152 3149 3149 3148 3148 3147 3145 3143 3141 3139 3143 3144 3141 3140 3138 3138 3138 3133 3128 3131 3133 3133 3134 3133 3132 3131 3131 3131 3130 3130 3129 3129 3129 3128 3128
3161 3162 3162 3162 3162 3162 3162 3161 3161 3162 3162 3161 3161 3161 3160 3160 3159 3159 3158 3158 3157 3156 3156 3155 3153 3152 3150 3151 3154 3154 3154 3155 3156 3157 3157 3156 3157 3156 3156 3155 3155 3154 3154 3153 3153 3153 3151 3150 3150 3150 3150 3151 3151 3148 3145 3145 3146 3146 3143 3140 3140 3137 3135 3139 3140 3138 3136 3135 3134 3133 3129 3125 3126 3128 3130 3129 3128 3127 3126 3127 3127 3126 3125 3125 3125 3125 3124 3124
3158 3158 3158 3158 3159 3158 3158 3158 3158 3158 3158 3158 3158 3157 3157 3157 3156 3156 3155 3154 3153 3152 3153 3151 3150 3149 3146 3148 3151 3151 3152 3152 3153 3154 3153 3153 3153 3153 3153 3152 3151 3151 3150 3150 3150 3149 3147 3146 3146 3147 3148 3149 3148 3144 3142 3143 3143 3142 3139 3136 3137 3136 3133 3134 3134 3134 3133 3131 3130 3128 3125 3122 3121 3124 3126 3125 3124 3123 3122 3122 3122 3122 3121 3121 3120 3119 3119 3120
3154 3154 3154 3155 3155 3155 3154 3154 3154 3154 3154 3155 3154 3154 3154 3153 3153 3152 3151 3151 3149 3149 3149 3147 3146 3145 3143 3145 3147 3148 3149 3149 3150 3150 3150 3151 3150 3150 3150 3149 3148 3147 3146 3146 3146 3145 3143 3143 3143 3143 3145 3146 3145 3142 3140 3140 3138 3137 3136 3133 3133 3134 3132 3130 3128 3129 3130 3127 3125 3123 3120 3117 3117 3120 3122 3122 3121 3119 3117 3117 3118 3117 3117 3117 3116 3115 3114 3114
3151 3151 3151 3151 3151 3151 3150 3150 3151 3150 3151 3151 3150 3150 3150 3149 3149 3148 3147 3147 3146 3146 3144 3143 3143 3141 3140 3143 3144 3145 3146 3146 3146 3147 3148 3147 3147 3146 3146 3145 3144 3143 3142 3142 3142 3141 3140 3140 3139 3140 3142 3141 3140 3137 3135 3134 3134 3135 3135 3132 3130 3130 3129 3127 3124 3125 3126 3123 3122 3120 3115 3112 3113 3115 3117 3118 3118 3115 3112 3113 3112 3112 3112 3112 3111 3110 3110 3109
3148 3148 3148 3148 3148 3148 3147 3147 3147 3147 3147 3147 3147 3146 3146 3145 3144 3143 3143 3142 3142 3142 3141 3139 3139 3138 3137 3140 3141 3141 3143 3144 3143 3144 3145 3144 3143 3143 3143 3142 3140 3139 3139 3138 3138 3137 3138 3137 3134 3135 3137 3136 3135 3134 3131 3132 3133 3133 3132 3130 3127 3126 3125 3123 3122 3122 3123 3120 3118 3116 3111 3108 3109 3109 3110 3112 3113 3112 3108 3107 3106 3106 3107 3107 3106 3105 3105 3104
3145 3145 3145 3145 3145 3144 3144 3144 3144 3143 3143 3143 3144 3143 3142 3140 3139 3138 3138 3137 3138 3138 3138 3136 3134 3134 3134 3136 3137 3138 3139 3140 3140 3141 3141 3140 3140 3139 3139 3138 3134 3134 3135 3135 3134 3134 3135 3131 3128 3130 3132 3133 3134 3133 3131 3130 3131 3130 3129 3126 3123 3122 3119 3118 3120 3119 3120 3116 3111 3112 3107 3104 3104 3102 3103 3105 3106 3107 3105 3103 3101 3101 3101 3101 3100 3099 3099 3099
3142 3142 3142 3142 3142 3141 3141 3141 3141 3140 3140 3140 3140 3139 3138 3137 3134 3133 3131 3131 3133 3134 3133 3133 3131 3129 3130 3132 3133 3135 3136 3135 3136 3136 3135 3136 3137 3135 3134 3133 3130 3129 3131 3132 3131 3130 3128 3122 3122 3127 3129 3131 3132 3131 3129 3127 3127 3126 3125 3121 3118 3118 3114 3112 3116 3116 3116 3111 3104 3106 3102 3097 3099 3097 3097 3099 3098 3098 3099 3099 3098 3097 3096 3095 3095 3094 3094 3095
3139 3139 3139 3139 3138 3138 3138 3138 3137 3137 3137 3137 3137 3136 3135 3133 3131 3129 3125 3122 3126 3130 3128 3128 3128 3124 3127 3130 3129 3132 3131 3129 3130 3129 3131 3134 3132 3131 3129 3127 3125 3124 3127 3129 3127 3123 3118 3115 3119 3125 3127 3129 3128 3126 3126 3123 3123 3122 3121 3117 3113 3114 3111 3107 3111 3113 3112 3107 3100 3101 3095 3089 3092 3091 3091 3092 3091 3092 3094 3094 3095 3093 3091 3090 3090 3090 3090 3090
3136 3136 3136 3136 3135 3135 3135 3135 3134 3134 3134 3134 3134 3133 3132 3130 3128 3126 3122 3115 3115 3123 3123 3123 3123 3120 3123 3126 3125 3128 3125 3122 3124 3124 3128 3130 3127 3127 3125 3122 3121 3120 3122 3123 3121 3117 3110 3110 3118 3122 3123 3123 3122 3122 3123 3120 3118 3117 3116 3113 3108 3111 3111 3103 3104 3109 3107 3102 3098 3095 3088 3081 3084 3084 3083 3086 3086 3087 3088 3088 3089 3088 3087 3087 3087 3087 3086 3085
3132 3132 3132 3132 3132 3131 3131 3132 3131 3131 3131 3131 3130 3130 3129 3127 3126 3123 3119 3111 3106 3112 3118 3118 3117 3116 3119 3121 3120 3122 3119 3117 3118 3118 3123 3124 3123 3123 3120 3119 3118 3115 3116 3116 3115 3110 3104 3109 3116 3117 3118 3119 3117 3117 3119 3118 3114 3110 3110 3110 3106 3107 3109 3102 3102 3104 3100 3096 3095 3093 3082 3071 3075 3077 3074 3080 3083 3082 3083 3083 3083 3083 3083 3084 3083 3082 3082 3081
3129 3129 3129 3129 3129 3128 3128 3128 3128 3128 3128 3128 3127 3127 3126 3125 3123 3120 3116 3108 3099 3102 3110 3112 3111 3111 3114 3114 3113 3115 3113 3110 3112 3114 3116 3117 3119 3119 3116 3115 3113 3109 3111 3113 3110 3102 3101 3110 3113 3111 3112 3114 3113 3111 3114 3116 3109 3101 3103 3106 3104 3103 3104 3102 3101 3100 3095 3090 3090 3093 3081 3060 3062 3070 3068 3073 3077 3076 3078 3078 3077 3078 3079 3079 3079 3078 3078 3077
3125 3125 3125 3126 3126 3126 3125 3125 3125 3125 3125 3125 3124 3124 3123 3122 3121 3118 3114 3104 3095 3097 3103 3104 3105 3105 3106 3107 3108 3110 3108 3103 3105 3109 3110 3111 3114 3114 3111 3109 3108 3106 3107 3110 3107 3098 3098 3105 3107 3107 3107 3107 3108 3107 3110 3111 3105 3096 3096 3102 3103 3101 3100 3099 3099 3098 3092 3086 3085 3089 3084 3062 3052 3059 3063 3066 3069 3069 3072 3073 3071 3074 3075 3075 3075 3074 3074 3074
3121 3122 3121 3122 3123 3123 3122 3122 3122 3121 3122 3122 3121 3121 3120 3119 3119 3117 3112 3102 3092 3093 3097 3098 3100 3100 3101 3103 3105 3107 3104 3099 3102 3105 3106 3107 3108 3108 3106 3103 3104 3103 3104 3107 3102 3094 3097 3100 3100 3102 3103 3103 3104 3103 3103 3106 3103 3094 3093 3098 3098 3098 3098 3095 3096 3095 3089 3085 3081 3082 3086 3073 3046 3042 3054 3060 3061 3064 3066 3068 3068 3069 3071 3070 3071 3070 3070 3070
3118 3118 3118 3118 3119 3119 3118 3119 3119 3118 3118 3118 3118 3118 3117 3117 3117 3115 3114 3105 3092 3090 3093 3094 3095 3096 3098 3101 3101 3102 3101 3098 3100 3101 3103 3104 3103 3103 3101 3099 3101 3100 3101 3103 3095 3091 3096 3097 3097 3098 3099 3099 3098 3097 3099 3102 3100 3093 3093 3095 3095 3095 3094 3093 3093 3091 3089 3084 3075 3073 3085 3080 3044 3029 3046 3051 3052 3058 3058 3062 3064 3064 3066 3066 3067 3067 3067 3067
3115 3114 3114 3114 3115 3116 3116 3115 3116 3115 3115 3114 3115 3115 3114 3116 3114 3113 3114 3104 3089 3087 3090 3090 3092 3094 3096 3097 3097 3098 3098 3097 3097 3097 3099 3101 3100 3099 3097 3096 3098 3097 3097 3097 3090 3090 3095 3093 3093 3095 3095 3093 3092 3094 3095 3097 3095 3092 3093 3091 3091 3093 3091 3093 3090 3088 3090 3080 3069 3070 3079 3081 3046 3021 3039 3046 3044 3051 3052 3056 3060 3060 3063 3062 3063 3064 3063 3063
3110 3110 3110 3110 3110 3112 3111 3112 3113 3112 3111 3111 3111 3112 3112 3112 3112 3112 3109 3095 3086 3086 3087 3086 3088 3091 3092 3093 3094 3094 3094 3094 3095 3095 3096 3096 3096 3095 3093 3093 3095 3094 3094 3092 3087 3089 3091 3088 3088 3089 3089 3088 3089 3091 3091 3091 3091 3090 3091 3088 3089 3090 3088 3091 3087 3087 3090 3072 3063 3068 3073 3079 3051 3019 3032 3042 3039 3045 3047 3051 3055 3056 3059 3059 3060 3061 3060 3061
3106 3105 3105 3104 3105 3107 3106 3108 3110 3108 3107 3107 3108 3109 3109 3109 3110 3109 3097 3085 3084 3084 3082 3083 3084 3086 3087 3088 3089 3090 3090 3090 3091 3092 3092 3092 3091 3090 3088 3089 3091 3091 3090 3088 3085 3085 3086 3083 3083 3083 3084 3085 3086 3087 3085 3087 3088 3087 3087 3086 3087 3087 3085 3086 3084 3086 3086 3066 3060 3065 3067 3072 3047 3019 3030 3038 3037 3042 3044 3047 3050 3051 3054 3055 3056 3058 3057 3057
3102 3102 3101 3099 3099 3100 3100 3102 3105 3104 3103 3103 3104 3105 3105 3107 3104 3094 3084 3083 3085 3081 3078 3081 3081 3082 3084 3084 3084 3086 3087 3086 3087 3089 3089 3088 3086 3084 3084 3084 3086 3087 3086 3084 3083 3082 3079 3078 3079 3079 3080 3082 3082 3082 3081 3082 3083 3083 3083 3084 3087 3086 3085 3085 3082 3081 3077 3062 3058 3063 3065 3057 3032 3020 3033 3037 3037 3041 3041 3044 3046 3047 3049 3050 3051 3053 3052 3052
3097 3098 3097 3095 3095 3096 3096 3097 3098 3099 3099 3098 3100 3099 3101 3102 3092 3078 3078 3084 3083 3078 3078 3080 3079 3080 3081 3080 3081 3082 3083 3082 3083 3085 3085 3084 3081 3079 3080 3080 3082 3083 3081 3081 3080 3077 3074 3073 3074 3075 3075 3077 3076 3076 3077 3076 3076 3076 3075 3079 3082 3083 3085 3084 3079 3074 3066 3058 3056 3061 3062 3045 3021 3023 3032 3032 3035 3038 3038 3041 3042 3042 3045 3045 3047 3048 3047 3047
3092 3092 3092 3091 3091 3092 3093 3093 3093 3095 3095 3094 3094 3093 3095 3091 3079 3072 3076 3079 3078 3078 3079 3078 3076 3077 3077 3076 3077 3078 3080 3079 3079 3081 3081 3079 3076 3074 3075 3075 3077 3079 3078 3079 3076 3074 3073 3067 3065 3069 3071 3071 3070 3071 3073 3072 3070 3068 3069 3074 3073 3073 3077 3076 3071 3065 3059 3055 3054 3057 3054 3033 3019 3024 3028 3028 3032 3033 3034 3037 3037 3037 3039 3041 3043 3043 3043 3043
3087 3087 3086 3086 3086 3087 3090 3090 3090 3091 3090 3090 3089 3088 3086 3080 3072 3072 3075 3075 3077 3077 3076 3075 3074 3073 3072 3072 3072 3074 3076 3075 3075 3076 3075 3073 3072 3070 3070 3071 3074 3076 3075 3076 3072 3071 3070 3061 3058 3064 3065 3065 3066 3068 3070 3069 3066 3064 3066 3068 3065 3065 3067 3065 3062 3058 3058 3056 3049 3045 3040 3025 3019 3022 3023 3026 3027 3027 3030 3030 3032 3034 3034 3037 3038 3038 3038 3037
3081 3081 3081 3080 3081 3083 3086 3086 3086 3087 3086 3085 3083 3080 3077 3073 3071 3073 3073 3074 3076 3075 3073 3073 3072 3070 3068 3068 3068 3070 3072 3071 3071 3071 3069 3069 3068 3066 3065 3066 3070 3072 3071 3071 3069 3068 3065 3058 3058 3059 3058 3060 3062 3063 3066 3065 3062 3060 3060 3060 3058 3061 3061 3059 3059 3056 3059 3057 3042 3034 3030 3023 3021 3017 3017 3022 3022 3023 3027 3026 3028 3031 3030 3032 3032 3032 3033 3032
3075 3075 3075 3075 3077 3079 3080 3081 3082 3083 3082 3079 3076 3072 3070 3068 3068 3070 3071 3073 3073 3074 3073 3071 3069 3068 3066 3065 3065 3067 3068 3068 3067 3065 3065 3064 3062 3061 3062 3063 3065 3067 3067 3067 3065 3064 3061 3055 3056 3056 3053 3056 3058 3058 3060 3058 3056 3056 3055 3055 3055 3058 3057 3057 3059 3056 3058 3055 3039 3028 3025 3024 3023 3014 3010 3018 3019 3020 3023 3023 3025 3026 3025 3026 3026 3027 3028 3028
3069 3069 3068 3069 3072 3073 3074 3076 3076 3077 3077 3073 3068 3065 3063 3061 3062 3064 3067 3069 3070 3071 3070 3068 3066 3064 3064 3063 3063 3065 3066 3064 3063 3062 3061 3060 3057 3056 3058 3059 3060 3061 3063 3064 3059 3058 3057 3052 3052 3053 3051 3051 3053 3054 3052 3050 3052 3052 3052 3053 3053 3052 3051 3052 3054 3053 3053 3049 3036 3026 3022 3020 3017 3011 3008 3014 3016 3016 3019 3019 3020 3021 3021 3022 3022 3023 3024 3024
3064 3063 3061 3063 3066 3068 3069 3070 3070 3072 3071 3066 3061 3058 3056 3056 3058 3061 3063 3064 3066 3066 3065 3064 3063 3061 3061 3061 3060 3061 3062 3061 3061 3060 3059 3058 3055 3054 3055 3055 3055 3056 3058 3059 3055 3053 3054 3049 3046 3048 3048 3047 3047 3046 3042 3043 3048 3049 3048 3049 3048 3047 3046 3045 3045 3044 3043 3039 3032 3027 3022 3013 3008 3008 3010 3011 3012 3014 3015 3016 3017 3018 3020 3021 3021 3021 3022 3022
3058 3056 3054 3056 3059 3061 3064 3064 3063 3064 3061 3056 3054 3052 3051 3052 3054 3057 3059 3059 3060 3060 3058 3058 3058 3057 3056 3056 3056 3056 3057 3056 3057 3058 3056 3055 3054 3052 3052 3052 3052 3052 3052 3053 3051 3050 3049 3045 3041 3043 3044 3041 3037 3035 3035 3038 3042 3043 3043 3043 3043 3042 3042 3040 3038 3036 3034 3031 3028 3027 3021 3008 3003 3006 3009 3007 3009 3011 3012 3014 3015 3016 3017 3018 3019 3018 3019 3019
3052 3049 3047 3050 3052 3055 3059 3058 3055 3055 3052 3049 3049 3047 3047 3049 3050 3052 3054 3055 3055 3055 3054 3053 3053 3052 3051 3051 3051 3052 3052 3051 3051 3053 3051 3050 3050 3049 3048 3049 3049 3048 3047 3047 3048 3046 3045 3042 3039 3039 3039 3035 3032 3033 3035 3036 3037 3037 3037 3037 3037 3037 3037 3036 3033 3031 3030 3026 3024 3023 3016 3006 3002 3003 3005 3005 3005 3007 3009 3010 3011 3012 3014 3014 3014 3015 3015 3015
3045 3043 3042 3045 3046 3048 3052 3050 3048 3048 3044 3042 3044 3043 3044 3045 3045 3047 3049 3049 3049 3049 3049 3048 3047 3048 3047 3046 3046 3047 3047 3045 3045 3045 3044 3043 3045 3044 3045 3046 3046 3045 3043 3042 3042 3043 3041 3041 3038 3036 3034 3034 3034 3035 3034 3032 3032 3032 3031 3032 3033 3032 3032 3031 3026 3026 3027 3022 3021 3019 3010 3004 3002 3000 3001 3002 3001 3003 3005 3005 3006 3007 3009 3009 3009 3008 3009 3011
3038 3037 3038 3040 3041 3043 3044 3042 3041 3040 3036 3036 3040 3040 3040 3040 3040 3041 3042 3043 3042 3042 3043 3043 3043 3043 3042 3042 3042 3042 3042 3039 3035 3036 3036 3036 3037 3039 3041 3043 3042 3041 3040 3038 3037 3038 3037 3036 3035 3032 3031 3031 3032 3033 3031 3028 3028 3026 3025 3027 3027 3026 3027 3026 3023 3024 3022 3018 3019 3014 3003 3001 3002 3000 2999 2999 2998 2999 3000 3000 3001 3001 3002 3003 3002 3002 3002 3004
3032 3032 3033 3035 3036 3037 3035 3034 3034 3033 3031 3033 3034 3034 3035 3034 3034 3035 3036 3036 3036 3036 3037 3037 3037 3037 3037 3038 3037 3037 3037 3033 3026 3027 3029 3028 3029 3032 3036 3038 3038 3037 3036 3033 3032 3033 3032 3031 3029 3028 3028 3027 3028 3029 3026 3023 3021 3020 3019 3021 3021 3020 3022 3021 3020 3020 3015 3013 3015 3009 2998 2998 3002 3000 2998 2996 2993 2992 2993 2994 2995 2995 2995 2997 2997 2997 2997 2996
3026 3026 3027 3029 3029 3028 3026 3027 3030 3028 3028 3029 3027 3027 3029 3028 3027 3029 3030 3030 3031 3031 3030 3030 3031 3031 3032 3032 3031 3029 3030 3028 3023 3021 3022 3021 3021 3024 3028 3031 3033 3032 3030 3028 3028 3028 3025 3022 3022 3022 3021 3020 3019 3018 3015 3013 3014 3014 3014 3015 3014 3014 3015 3014 3015 3015 3010 3007 3008 3002 2994 2995 2999 3000 2997 2992 2988 2986 2987 2989 2989 2990 2991 2992 2991 2991 2990 2989
3020 3020 3021 3022 3022 3021 3020 3022 3024 3023 3023 3025 3022 3022 3023 3021 3021 3025 3025 3023 3024 3026 3025 3024 3026 3026 3025 3025 3024 3022 3021 3022 3020 3017 3015 3014 3014 3016 3019 3021 3024 3025 3024 3023 3023 3022 3016 3012 3014 3013 3010 3008 3006 3005 3007 3009 3009 3008 3008 3008 3009 3009 3009 3008 3008 3005 3003 3002 2997 2994 2992 2989 2991 2996 2992 2987 2984 2980 2979 2982 2982 2983 2984 2984 2983 2982 2981 2981
3014 3014 3016 3016 3016 3016 3015 3016 3018 3017 3018 3020 3016 3015 3017 3016 3016 3019 3018 3017 3018 3020 3019 3018 3020 3020 3018 3018 3017 3015 3015 3016 3014 3011 3009 3008 3008 3010 3011 3013 3014 3015 3016 3016 3015 3015 3008 3002 3004 3004 3000 3001 3001 3001 3005 3005 3003 3003 3003 3003 3004 3004 3004 3003 2998 2994 2997 2995 2984 2984 2989 2983 2981 2987 2985 2980 2979 2974 2973 2975 2975 2975 2975 2974 2973 2972 2972 2971
3008 3008 3010 3011 3010 3011 3011 3011 3012 3011 3013 3014 3011 3010 3011 3011 3011 3012 3012 3012 3012 3015 3014 3010 3011 3012 3012 3013 3012 3009 3010 3010 3006 3004 3003 3002 3003 3004 3003 3004 3005 3006 3008 3006 3005 3006 2999 2993 2997 2997 2993 2994 2997 2997 2999 2998 2995 2995 2995 2995 2996 2996 2996 2994 2988 2985 2988 2981 2971 2976 2982 2975 2972 2977 2976 2972 2971 2968 2967 2969 2969 2969 2968 2966 2965 2964 2962 2961
3003 3002 3004 3005 3003 3004 3006 3006 3007 3006 3007 3009 3007 3006 3007 3006 3006 3007 3008 3008 3006 3007 3007 3003 3004 3006 3005 3006 3006 3002 3003 3003 2998 2997 2998 2995 2997 2998 2995 2993 2996 2998 2999 2997 2996 2997 2992 2986 2990 2991 2985 2985 2988 2988 2989 2988 2985 2984 2986 2986 2986 2986 2985 2982 2977 2976 2977 2971 2967 2972 2972 2964 2964 2968 2966 2964 2964 2963 2964 2964 2962 2961 2959 2958 2959 2957 2955 2954
2999 2997 2998 2998 2996 2998 3000 3000 3001 3000 3001 3003 3001 3001 3002 3002 3001 3002 3003 3004 3001 3001 3003 3000 2998 3000 2999 2999 2998 2995 2996 2996 2991 2991 2993 2990 2990 2991 2989 2987 2989 2991 2991 2990 2989 2989 2985 2980 2982 2984 2977 2974 2979 2979 2978 2978 2976 2974 2975 2977 2978 2977 2974 2970 2967 2969 2969 2965 2962 2963 2958 2954 2956 2958 2956 2957 2958 2959 2959 2957 2954 2952 2951 2952 2952 2951 2949 2949
2993 2992 2992 2991 2990 2993 2994 2994 2995 2995 2994 2996 2995 2995 2998 2998 2998 2997 2997 2999 2998 2997 2998 2996 2992 2993 2993 2992 2991 2990 2989 2989 2985 2984 2986 2984 2984 2986 2984 2983 2985 2986 2984 2984 2982 2981 2980 2975 2977 2980 2970 2964 2970 2971 2967 2969 2968 2964 2966 2970 2970 2966 2960 2958 2960 2961 2961 2956 2953 2952 2949 2944 2946 2948 2949 2951 2952 2951 2951 2948 2946 2944 2945 2946 2946 2944 2943 2943
2987 2986 2987 2986 2985 2987 2988 2987 2989 2989 2987 2990 2991 2991 2992 2992 2993 2993 2992 2992 2993 2992 2991 2991 2988 2987 2987 2986 2985 2983 2982 2981 2979 2978 2979 2978 2978 2980 2979 2978 2981 2981 2979 2978 2977 2975 2973 2970 2971 2973 2962 2956 2963 2964 2961 2965 2958 2949 2955 2961 2958 2954 2951 2950 2952 2952 2952 2950 2944 2940 2937 2936 2939 2943 2943 2942 2943 2941 2940 2939 2938 2938 2940 2941 2940 2938 2937 2937